Istanbul, Turkey

6:26 PM EEST on August 24, 2016 (GMT +0300)
Ataturk

Weather History for LTBA - January, 2012

Change the Weather History Date:

Wednesday, January 18, 2012

  Actual Average Record
Temperature  
Mean Temperature 32 °F -  
Max Temperature 38 °F 47 °F 59 °F (2013)
Min Temperature 25 °F 37 °F 26 °F (2012)
Degree Days  
Heating Degree Days 34    
Moisture  
Dew Point 19 °F    
Average Humidity 57    
Maximum Humidity 80    
Minimum Humidity 28    
Precipitation  
Precipitation 0.00 in - - ()
Sea Level Pressure  
Sea Level Pressure 30.37 in    
Wind  
Wind Speed 6 mph ()    
Max Wind Speed 14 mph    
Max Gust Speed -    
Visibility 6.2 miles    
Events Snow    
Averages and records for this station are not official NWS values.
T = Trace of Precipitation, MM = Missing Value Source: Averaged Metar Reports

Daily Weather History Graph

Daily Weather History Graph

Search for Another Location

Airport or City:

Trip Planner

Search our weather history database for the weather conditions in past years. The results will help you decide how hot, cold, wet, or windy it might be!

Date:

Astronomy

Jan. 18, 2012 Rise Set
Actual Time 7:26 AM EET 5:03 PM EET
Civil Twilight 6:56 AM EET 5:34 PM EET
Nautical Twilight 6:22 AM EET 6:07 PM EET
Astronomical Twilight 5:49 AM EET 6:40 PM EET
Moon 2:33 AM EET (1/18) 12:26 PM EET (1/18)
Length of Visible Light 10h 37m
Length of Day
9h 37m
Waning Crescent, 28% of the Moon is Illuminated
Jan 18
Waning Crescent
Jan 23
New
Jan 31
First Quarter
Feb 7
Full
Feb 14
Last Quarter

Hourly Weather History & Observations

Time (EET) Temp. Windchill Dew Point Humidity Pressure Visibility Wind Dir Wind Speed Gust Speed Precip Events Conditions
12:20 AM 30.2 °F 22.6 °F 17.6 °F 60% 30.30 in 6.2 mi NW 8.1 mph - N/A   Partly Cloudy
12:50 AM 30.2 °F 22.6 °F 17.6 °F 60% 30.30 in 6.2 mi NW 8.1 mph - N/A   Partly Cloudy
1:20 AM 30.2 °F 23.4 °F 15.8 °F 55% 30.30 in 6.2 mi NW 6.9 mph - N/A   Partly Cloudy
1:50 AM 30.2 °F 23.4 °F 17.6 °F 60% 30.30 in 6.2 mi NW 6.9 mph - N/A   Partly Cloudy
2:00 AM 29 °F - 15 °F 43% 30.34 in 6 mi NW 6.9 mph - -   Scattered Clouds
2:20 AM 28.4 °F 21.2 °F 17.6 °F 64% 30.33 in 6.2 mi NW 6.9 mph - N/A   Partly Cloudy
2:50 AM 30.2 °F 22.6 °F 17.6 °F 60% 30.33 in - NW 8.1 mph - N/A   Clear
3:20 AM 28.4 °F 22.2 °F 17.6 °F 64% 30.33 in - NW 5.8 mph - N/A   Clear
3:50 AM 30.2 °F 25.4 °F 17.6 °F 60% 30.30 in - WNW 4.6 mph - N/A   Clear
4:20 AM 28.4 °F 23.3 °F 15.8 °F 59% 30.30 in - NW 4.6 mph - N/A   Clear
4:50 AM 26.6 °F 21.2 °F 15.8 °F 64% 30.30 in - North 4.6 mph - N/A   Clear
5:20 AM 26.6 °F 21.2 °F 17.6 °F 69% 30.30 in - NW 4.6 mph - N/A   Clear
5:50 AM 26.6 °F 20.0 °F 19.4 °F 74% 30.30 in - North 5.8 mph - N/A   Clear
6:20 AM 28.4 °F 23.3 °F 19.4 °F 69% 30.30 in - North 4.6 mph - N/A   Clear
6:50 AM 30.2 °F 25.4 °F 19.4 °F 64% 30.33 in 6.2 mi North 4.6 mph - N/A   Partly Cloudy
7:20 AM 30.2 °F 23.4 °F 19.4 °F 64% 30.33 in 6.2 mi North 6.9 mph - N/A   Scattered Clouds
7:50 AM 30.2 °F 25.4 °F 19.4 °F 64% 30.33 in 6.2 mi NNW 4.6 mph - N/A   Scattered Clouds
8:00 AM 30 °F - 18 °F 48% 30.36 in 12 mi NNW 4.6 mph - -   Scattered Clouds
8:20 AM 32.0 °F 25.6 °F 15.8 °F 51% 30.33 in 6.2 mi NNW 6.9 mph - N/A   Mostly Cloudy
8:50 AM 33.8 °F 27.7 °F 15.8 °F 48% 30.36 in 6.2 mi NNW 6.9 mph - N/A   Mostly Cloudy
9:20 AM 33.8 °F 27.7 °F 14.0 °F 44% 30.36 in 6.2 mi NNW 6.9 mph - N/A   Mostly Cloudy
9:50 AM 35.6 °F 30.7 °F 15.8 °F 44% 30.36 in 6.2 mi NW 5.8 mph - N/A   Mostly Cloudy
10:20 AM 35.6 °F 31.7 °F 12.2 °F 38% 30.36 in 6.2 mi NW 4.6 mph - N/A   Mostly Cloudy
10:50 AM 37.4 °F 32.8 °F 12.2 °F 36% 30.36 in 6.2 mi WNW 5.8 mph - N/A   Mostly Cloudy
11:20 AM 37.4 °F 32.8 °F 10.4 °F 33% 30.36 in 6.2 mi WNW 5.8 mph - N/A   Mostly Cloudy
11:50 AM 37.4 °F 32.8 °F 6.8 °F 28% 30.36 in 6.2 mi West 5.8 mph - N/A   Scattered Clouds
12:20 PM 35.6 °F 29.2 °F 21.2 °F 56% 30.36 in 6.2 mi SW 8.1 mph - N/A   Mostly Cloudy
12:50 PM 35.6 °F 32.8 °F 21.2 °F 56% 30.36 in 6.2 mi Variable 3.5 mph - N/A   Scattered Clouds
1:20 PM 35.6 °F 30.7 °F 23.0 °F 60% 30.36 in 6.2 mi West 5.8 mph - N/A   Mostly Cloudy
1:50 PM 37.4 °F 31.4 °F 17.6 °F 45% 30.36 in 6.2 mi West 8.1 mph - N/A   Scattered Clouds
2:00 PM 38 °F - 21 °F 37% 30.38 in 6 mi West 8.1 mph - -   Partly Cloudy
2:20 PM 37.4 °F 31.4 °F 15.8 °F 41% 30.36 in 6.2 mi NNW 8.1 mph - N/A   Scattered Clouds
2:50 PM 35.6 °F 29.9 °F 17.6 °F 48% 30.36 in 6.2 mi NNW 6.9 mph - N/A   Scattered Clouds
3:20 PM 37.4 °F 30.8 °F 17.6 °F 45% 30.36 in 6.2 mi NNW 9.2 mph - N/A   Scattered Clouds
3:50 PM 35.6 °F 26.6 °F 19.4 °F 52% 30.39 in 6.2 mi NNW 13.8 mph - N/A   Scattered Clouds
4:20 PM 35.6 °F 27.1 °F 21.2 °F 56% 30.39 in 6.2 mi NNW 12.7 mph - N/A   Scattered Clouds
4:50 PM 33.8 °F 25.8 °F 21.2 °F 60% 30.39 in 6.2 mi NNW 10.4 mph - N/A   Scattered Clouds
5:20 PM 33.8 °F 25.3 °F 19.4 °F 56% 30.42 in 6.2 mi NNW 11.5 mph - N/A   Scattered Clouds
5:50 PM 33.8 °F 25.3 °F 23.0 °F 65% 30.42 in 6.2 mi North 11.5 mph - N/A   Scattered Clouds
6:20 PM 32.0 °F 23.6 °F 23.0 °F 69% 30.42 in 6.2 mi NNW 10.4 mph - N/A   Scattered Clouds
6:50 PM 32.0 °F 24.2 °F 23.0 °F 69% 30.42 in 6.2 mi NNW 9.2 mph - N/A   Scattered Clouds
7:20 PM 32.0 °F 25.6 °F 23.0 °F 69% 30.45 in 6.2 mi NNW 6.9 mph - N/A   Scattered Clouds
7:50 PM 32.0 °F 27.5 °F 23.0 °F 69% 30.45 in 6.2 mi NNW 4.6 mph - N/A   Scattered Clouds
8:00 PM 32 °F - 21 °F 51% 30.46 in 6 mi NNW 4.6 mph - -   Partly Cloudy
8:20 PM 30.2 °F 25.4 °F 21.2 °F 69% 30.45 in 6.2 mi NW 4.6 mph - N/A   Scattered Clouds
8:50 PM 32.0 °F 27.5 °F 23.0 °F 69% 30.45 in 6.2 mi NW 4.6 mph - N/A   Scattered Clouds
9:20 PM 30.2 °F 25.4 °F 21.2 °F 69% 30.45 in 6.2 mi NNW 4.6 mph - N/A   Scattered Clouds
9:50 PM 30.2 °F 26.7 °F 21.2 °F 69% 30.45 in 6.2 mi NNW 3.5 mph - N/A   Scattered Clouds
10:20 PM 32.0 °F 24.2 °F 24.8 °F 75% 30.45 in 2.5 mi NNW 9.2 mph - N/A Snow Light Snow Showers
10:50 PM 30.2 °F 25.4 °F 24.8 °F 80% 30.48 in 6.2 mi NNW 4.6 mph - N/A   Scattered Clouds
11:20 PM 32.0 °F 25.6 °F 21.2 °F 64% 30.48 in 6.2 mi NW 6.9 mph - N/A   Scattered Clouds
11:50 PM 32.0 °F 24.2 °F 21.2 °F 64% 30.45 in 6.2 mi NW 9.2 mph - N/A   Scattered Clouds